| time (UTC) | temp C | wind direction | speed KPH | gust KPH | rain 1hr cm | rain 24hr cm | rain mn cm | humidity % | barometer mb |
| 20260503224552 | 16 | 212 | 9.7 | 22.5 | 0.00 | 0.00 | 0.00 | 49 | 1010.4 |
| 20260503224025 | 16 | 308 | 8.0 | 19.3 | 0.00 | 0.00 | 0.00 | 50 | 1010.5 |
| 20260503223521 | 16 | 221 | 9.7 | 19.3 | 0.00 | 0.00 | 0.00 | 49 | 1010.5 |
| 20260503223019 | 16 | 226 | 11.3 | 27.4 | 0.00 | 0.00 | 0.00 | 49 | 1010.4 |
| 20260503222450 | 16 | 191 | 11.3 | 27.4 | 0.00 | 0.00 | 0.00 | 49 | 1010.6 |
| 20260503221948 | 16 | 262 | 11.3 | 19.3 | 0.00 | 0.00 | 0.00 | 48 | 1010.4 |
| 20260503221436 | 16 | 250 | 9.7 | 20.9 | 0.00 | 0.00 | 0.00 | 47 | 1010.5 |
| 20260503220935 | 16 | 247 | 9.7 | 25.7 | 0.00 | 0.00 | 0.00 | 48 | 1010.5 |
| 20260503220409 | 16 | 266 | 9.7 | 25.7 | 0.00 | 0.00 | 0.00 | 47 | 1010.5 |
| 20260503215906 | 16 | 242 | 11.3 | 27.4 | 0.00 | 0.00 | 0.00 | 49 | 1010.6 |
| 20260503215337 | 16 | 244 | 11.3 | 27.4 | 0.00 | 0.00 | 0.00 | 47 | 1010.7 |
| 20260503214838 | 16 | 212 | 11.3 | 27.4 | 0.00 | 0.00 | 0.00 | 47 | 1010.7 |
| 20260503214329 | 16 | 211 | 11.3 | 24.1 | 0.00 | 0.00 | 0.00 | 47 | 1010.6 |
| 20260503213804 | 17 | 231 | 9.7 | 22.5 | 0.00 | 0.00 | 0.00 | 47 | 1010.7 |
| 20260503213243 | 17 | 285 | 9.7 | 20.9 | 0.00 | 0.00 | 0.00 | 47 | 1010.6 |
| 20260503212733 | 17 | 220 | 9.7 | 16.1 | 0.00 | 0.00 | 0.00 | 48 | 1010.7 |
| 20260503212208 | 17 | 269 | 9.7 | 19.3 | 0.00 | 0.00 | 0.00 | 48 | 1010.7 |
| 20260503211644 | 17 | 239 | 9.7 | 33.8 | 0.00 | 0.00 | 0.00 | 49 | 1010.7 |
| 20260503211115 | 17 | 213 | 11.3 | 33.8 | 0.00 | 0.00 | 0.00 | 49 | 1010.8 |
| 20260503210616 | 17 | 244 | 11.3 | 27.4 | 0.00 | 0.00 | 0.00 | 47 | 1010.8 |
| 20260503210046 | 17 | 263 | 11.3 | 27.4 | 0.00 | 0.00 | 0.00 | 47 | 1010.8 |
| 20260503205523 | 17 | 211 | 9.7 | 22.5 | 0.00 | 0.00 | 0.00 | 48 | 1010.9 |
| 20260503204959 | 17 | 245 | 9.7 | 20.9 | 0.00 | 0.00 | 0.00 | 48 | 1010.9 |
| 20260503204457 | 17 | 265 | 9.7 | 20.9 | 0.00 | 0.00 | 0.00 | 48 | 1010.9 |
| 20260503203957 | 17 | 207 | 11.3 | 20.9 | 0.00 | 0.00 | 0.00 | 49 | 1010.9 |
| 20260503203449 | 17 | 251 | 11.3 | 25.7 | 0.00 | 0.00 | 0.00 | 47 | 1010.9 |
| 20260503202925 | 17 | 227 | 9.7 | 24.1 | 0.00 | 0.00 | 0.00 | 47 | 1011.1 |
| 20260503202405 | 17 | 196 | 9.7 | 24.1 | 0.00 | 0.00 | 0.00 | 49 | 1011.1 |
| 20260503201906 | 17 | 234 | 11.3 | 24.1 | 0.00 | 0.00 | 0.00 | 46 | 1011.0 |
| 20260503201338 | 17 | 211 | 9.7 | 24.1 | 0.00 | 0.00 | 0.00 | 49 | 1011.1 |
| 20260503200830 | 17 | 254 | 11.3 | 25.7 | 0.00 | 0.00 | 0.00 | 49 | 1011.1 |
| 20260503200329 | 17 | 213 | 11.3 | 25.7 | 0.00 | 0.00 | 0.00 | 48 | 1011.1 |
| 20260503195828 | 17 | 241 | 11.3 | 20.9 | 0.00 | 0.00 | 0.00 | 47 | 1011.2 |
| 20260503195329 | 17 | 195 | 11.3 | 22.5 | 0.00 | 0.00 | 0.00 | 47 | 1011.2 |
| 20260503194803 | 17 | 267 | 9.7 | 22.5 | 0.00 | 0.00 | 0.00 | 46 | 1011.3 |
| 20260503194258 | 17 | 280 | 11.3 | 22.5 | 0.00 | 0.00 | 0.00 | 46 | 1011.4 |
| 20260503193803 | 17 | 254 | 11.3 | 25.7 | 0.00 | 0.00 | 0.00 | 49 | 1011.5 |
| 20260503193259 | 17 | 224 | 12.9 | 29.0 | 0.00 | 0.00 | 0.00 | 46 | 1011.5 |
| 20260503192748 | 17 | 189 | 11.3 | 29.0 | 0.00 | 0.00 | 0.00 | 46 | 1011.6 |
| 20260503192245 | 17 | 219 | 11.3 | 24.1 | 0.00 | 0.00 | 0.00 | 47 | 1011.7 |
| 20260503191745 | 17 | 265 | 9.7 | 22.5 | 0.00 | 0.00 | 0.00 | 46 | 1011.7 |
| 20260503191248 | 17 | 193 | 9.7 | 22.5 | 0.00 | 0.00 | 0.00 | 48 | 1011.8 |
| 20260503190728 | 17 | 178 | 9.7 | 22.5 | 0.00 | 0.00 | 0.00 | 48 | 1012.0 |
| 20260503190207 | 17 | 230 | 11.3 | 27.4 | 0.00 | 0.00 | 0.00 | 46 | 1012.0 |
| 20260503185654 | 17 | 221 | 9.7 | 27.4 | 0.00 | 0.00 | 0.00 | 48 | 1012.0 |
| 20260503185151 | 17 | 221 | 9.7 | 24.1 | 0.00 | 0.00 | 0.00 | 52 | 1012.2 |
| 20260503184628 | 16 | 244 | 11.3 | 30.6 | 0.00 | 0.00 | 0.00 | 48 | 1012.2 |
| 20260503184102 | 16 | 252 | 12.9 | 30.6 | 0.00 | 0.00 | 0.00 | 48 | 1012.3 |
| 20260503183606 | 16 | 250 | 11.3 | 27.4 | 0.00 | 0.00 | 0.00 | 47 | 1012.4 |
| 20260503183041 | 16 | 249 | 9.7 | 25.7 | 0.00 | 0.00 | 0.00 | 49 | 1012.5 |
| 20260503182544 | 16 | 157 | 9.7 | 25.7 | 0.00 | 0.00 | 0.00 | 49 | 1012.5 |
| 20260503182022 | 16 | 254 | 11.3 | 25.7 | 0.00 | 0.00 | 0.00 | 48 | 1012.6 |
| 20260503181458 | 16 | 268 | 11.3 | 20.9 | 0.00 | 0.00 | 0.00 | 48 | 1012.6 |
| 20260503180934 | 16 | 261 | 9.7 | 25.7 | 0.00 | 0.00 | 0.00 | 48 | 1012.8 |
| 20260503180433 | 16 | 239 | 9.7 | 24.1 | 0.00 | 0.00 | 0.00 | 48 | 1012.8 |
| 20260503175929 | 16 | 221 | 9.7 | 24.1 | 0.00 | 0.00 | 0.00 | 49 | 1012.9 |
| 20260503175428 | 16 | 236 | 11.3 | 27.4 | 0.00 | 0.00 | 0.00 | 48 | 1013.0 |
| 20260503174906 | 16 | 244 | 9.7 | 27.4 | 0.00 | 0.00 | 0.00 | 51 | 1013.0 |
| 20260503174344 | 16 | 252 | 9.7 | 17.7 | 0.00 | 0.00 | 0.00 | 53 | 1013.0 |
| 20260503173813 | 16 | 226 | 9.7 | 22.5 | 0.00 | 0.00 | 0.00 | 51 | 1013.0 |
| 20260503173311 | 16 | 268 | 11.3 | 25.7 | 0.00 | 0.00 | 0.00 | 52 | 1013.2 |
| 20260503172807 | 16 | 253 | 9.7 | 25.7 | 0.00 | 0.00 | 0.00 | 56 | 1013.2 |
| 20260503172305 | 16 | 235 | 9.7 | 22.5 | 0.00 | 0.00 | 0.00 | 55 | 1013.3 |
| 20260503171740 | 15 | 218 | 9.7 | 22.5 | 0.00 | 0.00 | 0.00 | 56 | 1013.4 |
| 20260503171215 | 15 | 213 | 9.7 | 20.9 | 0.00 | 0.00 | 0.00 | 56 | 1013.5 |
| 20260503170647 | 15 | 214 | 9.7 | 25.7 | 0.00 | 0.00 | 0.00 | 57 | 1013.6 |
| 20260503170122 | 15 | 252 | 8.0 | 25.7 | 0.00 | 0.00 | 0.00 | 58 | 1013.6 |
| 20260503150543 | 12 | 270 | 9.7 | 22.5 | 0.00 | 0.00 | 0.00 | 61 | 1014.4 |
| 20260503140248 | 10 | 246 | 9.7 | 30.6 | 0.00 | 0.00 | 0.00 | 66 | 1014.7 |
| 20260503131104 | 8 | 248 | 8.0 | 14.5 | 0.00 | 0.00 | 0.00 | 67 | 1014.8 |
| 20260503130557 | 8 | 249 | 8.0 | 16.1 | 0.00 | 0.00 | 0.00 | 66 | 1014.9 |
| 20260503110612 | 5 | 217 | 6.4 | 12.9 | 0.00 | 0.00 | 0.00 | 74 | 1015.0 |
| 20260503110113 | 5 | 250 | 4.8 | 12.9 | 0.00 | 0.00 | 0.00 | 75 | 1015.0 |
| 20260503090209 | 5 | 273 | 4.8 | 8.0 | 0.00 | 0.03 | 0.00 | 78 | 1014.8 |
| 20260503081532 | 5 | 228 | 4.8 | 9.7 | 0.00 | 0.23 | 0.00 | 79 | 1014.9 |
| 20260503081005 | 5 | 258 | 3.2 | 9.7 | 0.00 | 0.25 | 0.00 | 79 | 1015.0 |
| 20260503080437 | 5 | 245 | 3.2 | 11.3 | 0.00 | 0.30 | 0.00 | 79 | 1015.0 |
| 20260503072827 | 5 | 215 | 4.8 | 12.9 | 0.00 | 0.48 | 0.00 | 77 | 1015.0 |
| 20260503072318 | 5 | 200 | 4.8 | 11.3 | 0.00 | 0.53 | 0.00 | 77 | 1015.0 |
| 20260503071750 | 5 | 219 | 4.8 | 11.3 | 0.00 | 0.58 | 0.00 | 76 | 1015.0 |
| 20260503071248 | 5 | 225 | 4.8 | 11.3 | 0.00 | 0.64 | 0.00 | 76 | 1015.0 |
| 20260503070744 | 6 | 226 | 4.8 | 11.3 | 0.00 | 0.64 | 0.00 | 76 | 1015.0 |
| 20260503070243 | 6 | 250 | 4.8 | 14.5 | 0.00 | 0.64 | 0.00 | 76 | 1015.1 |
| 20260503055004 | 6 | 228 | 3.2 | 8.0 | 0.00 | 0.64 | 0.00 | 76 | 1015.4 |
| 20260503054435 | 6 | 242 | 3.2 | 8.0 | 0.00 | 0.64 | 0.00 | 75 | 1015.4 |
| 20260503053906 | 6 | 243 | 3.2 | 6.4 | 0.00 | 0.64 | 0.00 | 75 | 1015.7 |
| 20260503053402 | 6 | 242 | 3.2 | 6.4 | 0.00 | 0.64 | 0.00 | 75 | 1015.5 |
| 20260503052836 | 6 | 225 | 3.2 | 6.4 | 0.00 | 0.64 | 0.00 | 75 | 1015.4 |
| 20260503052337 | 6 | 221 | 3.2 | 8.0 | 0.00 | 0.64 | 0.00 | 74 | 1015.4 |
| 20260503051832 | 6 | 209 | 3.2 | 8.0 | 0.00 | 0.64 | 0.00 | 74 | 1015.5 |
| 20260503051306 | 6 | 208 | 4.8 | 9.7 | 0.00 | 0.64 | 0.00 | 73 | 1015.4 |
| 20260503050741 | 6 | 245 | 4.8 | 9.7 | 0.00 | 0.64 | 0.00 | 73 | 1015.5 |
| 20260503050212 | 6 | 234 | 3.2 | 8.0 | 0.00 | 0.64 | 0.00 | 73 | 1015.5 |
| 20260503045715 | 6 | 221 | 3.2 | 6.4 | 0.00 | 0.64 | 0.00 | 73 | 1015.7 |
| 20260503045144 | 6 | 239 | 3.2 | 6.4 | 0.00 | 0.64 | 0.00 | 73 | 1015.7 |
| 20260503044617 | 6 | 248 | 3.2 | 8.0 | 0.00 | 0.64 | 0.00 | 73 | 1015.7 |
| 20260503044113 | 6 | 246 | 3.2 | 8.0 | 0.00 | 0.64 | 0.00 | 72 | 1015.5 |
| 20260503043546 | 6 | 216 | 3.2 | 8.0 | 0.00 | 0.64 | 0.00 | 72 | 1015.5 |
| 20260503043021 | 6 | 216 | 3.2 | 8.0 | 0.00 | 0.64 | 0.00 | 71 | 1015.5 |
| 20260503042456 | 6 | 225 | 3.2 | 6.4 | 0.00 | 0.64 | 0.00 | 71 | 1015.5 |
| 20260503041952 | 6 | 225 | 3.2 | 6.4 | 0.00 | 0.64 | 0.00 | 70 | 1015.7 |
| 20260503041455 | 6 | 223 | 3.2 | 11.3 | 0.00 | 0.64 | 0.00 | 70 | 1015.7 |
| 20260503040925 | 6 | 223 | 3.2 | 11.3 | 0.00 | 0.64 | 0.00 | 69 | 1015.7 |
| 20260503040359 | 6 | 229 | 3.2 | 6.4 | 0.00 | 0.64 | 0.00 | 70 | 1015.8 |
| 20260503035901 | 6 | 228 | 3.2 | 4.8 | 0.00 | 0.64 | 0.64 | 70 | 1015.8 |
| 20260503035352 | 7 | 228 | 3.2 | 6.4 | 0.00 | 0.64 | 0.64 | 70 | 1015.8 |
| 20260503034847 | 7 | 238 | 3.2 | 4.8 | 0.00 | 0.64 | 0.64 | 70 | 1015.8 |
| 20260503034339 | 7 | 236 | 3.2 | 6.4 | 0.00 | 0.64 | 0.64 | 70 | 1015.8 |
| 20260503033842 | 7 | 197 | 1.6 | 4.8 | 0.00 | 0.64 | 0.64 | 70 | 1015.8 |
| 20260503033311 | 7 | 197 | 1.6 | 4.8 | 0.00 | 0.64 | 0.64 | 69 | 1015.8 |
| 20260503032744 | 7 | 190 | 1.6 | 4.8 | 0.00 | 0.64 | 0.64 | 69 | 1015.7 |
| 20260503032232 | 7 | 190 | 1.6 | 4.8 | 0.00 | 0.64 | 0.64 | 68 | 1015.9 |
| 20260503031732 | 7 | 190 | 1.6 | 4.8 | 0.00 | 0.64 | 0.64 | 68 | 1015.8 |
| 20260503031211 | 7 | 189 | 1.6 | 6.4 | 0.00 | 0.64 | 0.64 | 69 | 1015.9 |
| 20260503030703 | 7 | 265 | 3.2 | 6.4 | 0.00 | 0.64 | 0.64 | 68 | 1015.9 |
| 20260503030201 | 7 | 257 | 3.2 | 4.8 | 0.00 | 0.64 | 0.64 | 67 | 1015.8 |
| 20260503025653 | 7 | 259 | 3.2 | 6.4 | 0.00 | 0.64 | 0.64 | 66 | 1015.9 |
| 20260503025151 | 7 | 242 | 3.2 | 9.7 | 0.00 | 0.64 | 0.64 | 66 | 1015.9 |
| 20260503024646 | 7 | 242 | 3.2 | 9.7 | 0.00 | 0.64 | 0.64 | 65 | 1016.0 |
| 20260503024144 | 7 | 221 | 3.2 | 6.4 | 0.00 | 0.64 | 0.64 | 66 | 1016.1 |
| 20260503023618 | 7 | 220 | 3.2 | 6.4 | 0.00 | 0.64 | 0.64 | 65 | 1016.1 |
| 20260503023058 | 7 | 261 | 3.2 | 11.3 | 0.00 | 0.64 | 0.64 | 64 | 1016.2 |
| 20260503022559 | 7 | 272 | 3.2 | 11.3 | 0.00 | 0.64 | 0.64 | 63 | 1016.1 |
| 20260503022057 | 7 | 227 | 3.2 | 6.4 | 0.00 | 0.64 | 0.64 | 61 | 1016.1 |
| 20260503021556 | 7 | 270 | 3.2 | 6.4 | 0.00 | 0.64 | 0.64 | 59 | 1016.1 |
| 20260503021028 | 7 | 229 | 3.2 | 9.7 | 0.00 | 0.64 | 0.64 | 58 | 1016.0 |
| 20260503020527 | 7 | 213 | 3.2 | 9.7 | 0.00 | 0.64 | 0.64 | 58 | 1016.0 |
| 20260503015959 | 7 | 229 | 3.2 | 6.4 | 0.00 | 0.64 | 0.64 | 59 | 1016.0 |
| 20260503015456 | 7 | 233 | 3.2 | 11.3 | 0.00 | 0.64 | 0.64 | 59 | 1016.0 |
| 20260503014928 | 7 | 233 | 3.2 | 11.3 | 0.00 | 0.64 | 0.64 | 59 | 1016.0 |
| 20260503014426 | 7 | 236 | 3.2 | 8.0 | 0.00 | 0.64 | 0.64 | 60 | 1016.0 |
| 20260503013906 | 7 | 227 | 3.2 | 8.0 | 0.00 | 0.64 | 0.64 | 60 | 1016.0 |
| 20260503013356 | 7 | 232 | 3.2 | 8.0 | 0.00 | 0.64 | 0.64 | 61 | 1016.0 |
| 20260503012828 | 7 | 250 | 3.2 | 11.3 | 0.00 | 0.64 | 0.64 | 61 | 1015.9 |
| 20260503012325 | 7 | 269 | 1.6 | 11.3 | 0.00 | 0.64 | 0.64 | 60 | 1015.9 |
| 20260503011758 | 7 | 232 | 1.6 | 3.2 | 0.00 | 0.64 | 0.64 | 62 | 1015.9 |
| 20260503011258 | 7 | 232 | 1.6 | 4.8 | 0.00 | 0.64 | 0.64 | 62 | 1015.9 |
| 20260503010728 | 7 | 232 | 1.6 | 4.8 | 0.00 | 0.64 | 0.64 | 62 | 1015.9 |
| 20260503010230 | 7 | 242 | 0.0 | 4.8 | 0.00 | 0.64 | 0.64 | 63 | 1016.0 |
| 20260503005701 | 7 | 241 | 0.0 | 0.0 | 0.00 | 0.64 | 0.64 | 65 | 1015.9 |
| 20260503005135 | 7 | 241 | 0.0 | 0.0 | 0.00 | 0.64 | 0.64 | 65 | 1015.9 |
| 20260503004634 | 7 | 241 | 0.0 | 0.0 | 0.00 | 0.64 | 0.64 | 66 | 1015.9 |
| 20260503004101 | 7 | 241 | 0.0 | 0.0 | 0.00 | 0.64 | 0.64 | 64 | 1015.8 |
| 20260503003532 | 7 | 241 | 0.0 | 0.0 | 0.00 | 0.64 | 0.64 | 63 | 1015.8 |
| 20260503003029 | 7 | 241 | 0.0 | 1.6 | 0.00 | 0.64 | 0.64 | 65 | 1015.8 |
| 20260503002502 | 7 | 241 | 1.6 | 3.2 | 0.00 | 0.64 | 0.64 | 63 | 1015.8 |
| 20260503001959 | 7 | 241 | 1.6 | 4.8 | 0.00 | 0.64 | 0.64 | 63 | 1015.8 |
| 20260503001430 | 7 | 241 | 1.6 | 4.8 | 0.00 | 0.64 | 0.64 | 62 | 1015.7 |
| 20260503000904 | 7 | 241 | 1.6 | 4.8 | 0.00 | 0.64 | 0.64 | 61 | 1015.7 |
| 20260503000336 | 7 | 241 | 0.0 | 4.8 | 0.00 | 0.64 | 0.64 | 61 | 1015.7 |
| 20260502235834 | 7 | 242 | 0.0 | 0.0 | 0.00 | 0.64 | 0.64 | 61 | 1015.8 |
| 20260502235311 | 7 | 242 | 0.0 | 0.0 | 0.00 | 0.64 | 0.64 | 60 | 1015.8 |
| 20260502234741 | 7 | 242 | 0.0 | 3.2 | 0.00 | 0.64 | 0.64 | 61 | 1015.9 |
| 20260502234231 | 7 | 242 | 1.6 | 4.8 | 0.00 | 0.64 | 0.64 | 61 | 1015.8 |
| 20260502233709 | 8 | 242 | 1.6 | 4.8 | 0.00 | 0.64 | 0.64 | 60 | 1015.7 |
| 20260502233141 | 8 | 244 | 1.6 | 4.8 | 0.00 | 0.64 | 0.64 | 59 | 1015.7 |
| 20260502232624 | 8 | 244 | 1.6 | 4.8 | 0.00 | 0.64 | 0.64 | 59 | 1015.8 |
| 20260502232124 | 8 | 244 | 1.6 | 6.4 | 0.00 | 0.64 | 0.64 | 59 | 1015.7 |
| 20260502231621 | 8 | 250 | 1.6 | 8.0 | 0.00 | 0.64 | 0.64 | 58 | 1015.7 |
| 20260502231124 | 8 | 258 | 1.6 | 6.4 | 0.00 | 0.64 | 0.64 | 59 | 1015.9 |
| 20260502230557 | 8 | 273 | 1.6 | 8.0 | 0.00 | 0.64 | 0.64 | 57 | 1015.8 |
| 20260502230055 | 8 | 273 | 3.2 | 9.7 | 0.00 | 0.64 | 0.64 | 58 | 1015.8 |
| 20260502225526 | 8 | 252 | 3.2 | 9.7 | 0.00 | 0.64 | 0.64 | 57 | 1015.9 |
| 20260502225025 | 8 | 241 | 3.2 | 8.0 | 0.00 | 0.64 | 0.64 | 57 | 1015.8 |